{"data":{"norad_id":68078,"epoch":"2026-05-25T02:16:54.545664Z","epoch_age_seconds":62800,"freshness":"FRESH","line1":"1 68078U 26042K   26145.09507576  .00019987  00000+0  60079-3 0  9998","line2":"2 68078  53.1589 183.0810 0000822  81.2486 278.8609 15.34415647 14010","mean_motion":15.34415647,"eccentricity":8.22e-5,"inclination_deg":53.1589,"raan_deg":183.081,"arg_perigee_deg":81.2486,"mean_anomaly_deg":278.8609,"bstar":0.00060079,"rev_number":1401,"period_min":93.846801081272,"perigee_km":462.09442117588,"apogee_km":463.21904766582,"semimajor_km":6840.7937344208,"source":"CELESTRAK","updated_at":"2026-05-25T13:38:21.818978Z"}}